Simultaneous Nadir Overpasses (SNOs) Predictions

Prediction of SNOs between GOES-16 and AQUA Satellite Orbit:

Table of predicted SNOs for the next 14.0 days since TLE Epoch: 2/13/2025
Index Date Time (GOES-16) GOES-16 Lat,Lon AQUA Lat,Lon Distance(km) Time Diff (sec)
1 02/14/2025 07:17:40 -0.03, -75.19 -0.66, -72.16 344.04 80
2 02/14/2025 19:37:13 0.03, -75.18 -0.34, -76.89 194.75 80
3 02/16/2025 19:20:34 0.03, -75.20 0.70, -72.17 344.81 80
4 02/17/2025 07:39:58 -0.03, -75.21 0.32, -76.86 186.99 80
5 02/19/2025 07:17:57 -0.03, -75.23 -0.69, -72.12 353.44 80
6 02/19/2025 19:37:30 0.03, -75.22 -0.32, -76.85 185.08 80
7 02/21/2025 19:20:47 0.02, -75.24 0.67, -72.10 356.67 80
8 02/22/2025 07:40:11 -0.01, -75.26 0.30, -76.79 174.20 80
9 02/24/2025 07:18:06 0.01, -75.28 -0.66, -72.03 368.71 80
10 02/24/2025 19:37:38 -0.01, -75.27 -0.36, -76.75 169.65 80
11 02/26/2025 19:20:53 -0.00, -75.29 0.71, -72.01 374.25 80
12 02/27/2025 07:40:16 0.00, -75.32 0.29, -76.69 155.78 80
